• In Deutschland
  • Länderverzeichnis
  • Für 7 Tage
  • Wassertemperatur
  • Satellitenkarten
  • Wetterkarte
  • Widgets
  • user-avatar
    Anmelden

    Stündliche Wetter Cavalcante

    Heute, 19 Oktober, Freitag

    Zeit Temperatur Niederschläge Wind Luftdruck Luftfeuchtigkeit
    00:00 +25°C° 1 mm 1 m/S 689 mmHg 80%
    01:00 +24°C° 0.8 mm 1 m/S 689 mmHg 81%
    02:00 +24°C° 0.8 mm 1 m/S 689 mmHg 81%
    03:00 +24°C° 0.8 mm 1 m/S 688 mmHg 82%
    04:00 +24°C° 0.7 mm 1 m/S 688 mmHg 82%
    05:00 +24°C° 0.7 mm 1 m/S 688 mmHg 82%
    06:00 +24°C° 0.7 mm 1 m/S 688 mmHg 83%
    07:00 +26°C° 0.7 mm 1 m/S 689 mmHg 75%
    08:00 +27°C° 0.7 mm 1 m/S 690 mmHg 68%
    09:00 +29°C° 0.7 mm 1 m/S 690 mmHg 60%
    10:00 +30°C° 0.9 mm 1 m/S 690 mmHg 56%
    11:00 +31°C° 0.9 mm 1 m/S 690 mmHg 52%
    12:00 +32°C° 0.9 mm 1 m/S 690 mmHg 48%
    13:00 +32°C° 0.9 mm 2 m/S 690 mmHg 50%
    14:00 +31°C° 0.9 mm 2 m/S 689 mmHg 51%
    15:00 +31°C° 0.9 mm 2 m/S 688 mmHg 53%
    16:00 +30°C° 0.6 mm 2 m/S 688 mmHg 56%
    17:00 +29°C° 0.6 mm 2 m/S 688 mmHg 60%
    18:00 +28°C° 0.6 mm 1 m/S 688 mmHg 64%
    19:00 +27°C° 0.5 mm 1 m/S 688 mmHg 66%
    20:00 +27°C° 0.5 mm 1 m/S 688 mmHg 69%
    21:00 +26°C° 0.5 mm 2 m/S 689 mmHg 72%
    22:00 +26°C° 0.3 mm 1 m/S 689 mmHg 73%
    23:00 +25°C° 0.3 mm 1 m/S 689 mmHg 74%

    Morgen, 20 Oktober, Samstag

    Zeit Temperatur Niederschläge Wind Luftdruck Luftfeuchtigkeit
    00:00 +25°C° 0.3 mm 1 m/S 689 mmHg 75%
    01:00 +25°C° 0.3 mm 1 m/S 688 mmHg 77%
    02:00 +24°C° 0.3 mm 1 m/S 688 mmHg 79%
    03:00 +24°C° 0.3 mm 1 m/S 687 mmHg 80%
    04:00 +23°C° 0.3 mm 1 m/S 687 mmHg 81%
    05:00 +23°C° 0.3 mm 1 m/S 687 mmHg 81%
    06:00 +23°C° 0.3 mm 1 m/S 688 mmHg 82%
    07:00 +25°C° 0 mm 1 m/S 688 mmHg 72%
    08:00 +27°C° 0 mm 1 m/S 689 mmHg 63%
    09:00 +30°C° 0 mm 2 m/S 690 mmHg 54%
    10:00 +31°C° 0.5 mm 1 m/S 690 mmHg 49%
    11:00 +33°C° 0.5 mm 1 m/S 690 mmHg 45%
    12:00 +35°C° 0.5 mm 1 m/S 690 mmHg 40%
    13:00 +34°C° 0.1 mm 1 m/S 689 mmHg 42%
    14:00 +33°C° 0.1 mm 1 m/S 688 mmHg 44%
    15:00 +32°C° 0.1 mm 1 m/S 687 mmHg 47%
    16:00 +31°C° 1 mm 1 m/S 687 mmHg 52%
    17:00 +30°C° 1 mm 1 m/S 687 mmHg 57%
    18:00 +29°C° 1 mm 1 m/S 687 mmHg 62%
    19:00 +28°C° 2.3 mm 1 m/S 687 mmHg 68%
    20:00 +27°C° 2.3 mm 1 m/S 688 mmHg 73%
    21:00 +26°C° 2.3 mm 1 m/S 688 mmHg 78%
    22:00 +25°C° 5.9 mm 1 m/S 688 mmHg 81%
    23:00 +25°C° 5.9 mm 1 m/S 688 mmHg 85%

    übermorgen, 21 Oktober, Sonntag

    Zeit Temperatur Niederschläge Wind Luftdruck Luftfeuchtigkeit
    00:00 +24°C° 5.9 mm 1 m/S 688 mmHg 88%
    01:00 +24°C° 3.9 mm 1 m/S 687 mmHg 89%
    02:00 +24°C° 3.9 mm 1 m/S 687 mmHg 90%
    03:00 +24°C° 3.9 mm 1 m/S 687 mmHg 90%
    04:00 +24°C° 1.7 mm 1 m/S 687 mmHg 90%
    05:00 +24°C° 1.7 mm 1 m/S 688 mmHg 90%
    06:00 +24°C° 1.7 mm 1 m/S 688 mmHg 90%
    07:00 +24°C° 0.8 mm 2 m/S 689 mmHg 86%
    08:00 +25°C° 0.8 mm 2 m/S 689 mmHg 82%
    09:00 +26°C° 0.8 mm 2 m/S 690 mmHg 78%
    10:00 +27°C° 0.5 mm 2 m/S 690 mmHg 72%
    11:00 +29°C° 0.5 mm 2 m/S 690 mmHg 66%
    12:00 +30°C° 0.5 mm 2 m/S 690 mmHg 60%
    13:00 +30°C° 0.9 mm 2 m/S 689 mmHg 60%
    14:00 +30°C° 0.9 mm 2 m/S 689 mmHg 61%
    15:00 +30°C° 0.9 mm 2 m/S 689 mmHg 61%
    16:00 +28°C° 2.3 mm 2 m/S 689 mmHg 68%
    17:00 +27°C° 2.3 mm 2 m/S 688 mmHg 76%
    18:00 +25°C° 2.3 mm 2 m/S 688 mmHg 83%
    19:00 +25°C° 2.1 mm 2 m/S 689 mmHg 85%
    20:00 +24°C° 2.1 mm 3 m/S 689 mmHg 86%
    21:00 +24°C° 2.1 mm 3 m/S 689 mmHg 88%
    22:00 +24°C° 0.7 mm 3 m/S 689 mmHg 88%
    23:00 +24°C° 0.7 mm 3 m/S 689 mmHg 88%

    22 Oktober, Montag

    Zeit Temperatur Niederschläge Wind Luftdruck Luftfeuchtigkeit
    00:00 +22°C° 0.7 mm 3 m/S 689 mmHg 88%
    01:00 +22°C° 1.3 mm 3 m/S 689 mmHg 88%
    02:00 +22°C° 1.3 mm 3 m/S 689 mmHg 89%
    03:00 +22°C° 1.3 mm 3 m/S 688 mmHg 90%
    04:00 +22°C° 0.4 mm 3 m/S 689 mmHg 90%
    05:00 +21°C° 0.4 mm 3 m/S 690 mmHg 91%
    06:00 +21°C° 0.4 mm 3 m/S 690 mmHg 91%
    07:00 +22°C° 0.6 mm 3 m/S 691 mmHg 90%
    08:00 +22°C° 0.6 mm 3 m/S 691 mmHg 89%
    09:00 +22°C° 0.6 mm 3 m/S 692 mmHg 87%
    10:00 +24°C° 0.4 mm 3 m/S 692 mmHg 85%
    11:00 +23°C° 0.4 mm 4 m/S 691 mmHg 82%
    12:00 +25°C° 0.4 mm 4 m/S 691 mmHg 79%
    13:00 +25°C° 0.4 mm 3 m/S 691 mmHg 77%
    14:00 +26°C° 0.4 mm 3 m/S 690 mmHg 74%
    15:00 +26°C° 0.4 mm 3 m/S 689 mmHg 72%
    16:00 +26°C° 0.3 mm 2 m/S 690 mmHg 74%
    17:00 +25°C° 0.3 mm 2 m/S 690 mmHg 76%
    18:00 +24°C° 0.3 mm 2 m/S 690 mmHg 79%
    19:00 +24°C° 0.1 mm 2 m/S 690 mmHg 79%
    20:00 +24°C° 0.1 mm 2 m/S 690 mmHg 80%
    21:00 +23°C° 0.1 mm 2 m/S 691 mmHg 80%
    22:00 +23°C° 0.5 mm 2 m/S 691 mmHg 81%
    23:00 +23°C° 0.5 mm 2 m/S 691 mmHg 82%

    23 Oktober, Dienstag

    Zeit Temperatur Niederschläge Wind Luftdruck Luftfeuchtigkeit
    00:00 +23°C° 0.5 mm 2 m/S 690 mmHg 83%
    01:00 +23°C° 0.4 mm 2 m/S 690 mmHg 84%
    02:00 +23°C° 0.4 mm 2 m/S 690 mmHg 84%
    03:00 +21°C° 0.4 mm 2 m/S 689 mmHg 84%
    04:00 +21°C° 0 mm 2 m/S 689 mmHg 84%
    05:00 +21°C° 0 mm 2 m/S 690 mmHg 84%
    06:00 +21°C° 0 mm 3 m/S 690 mmHg 84%
    07:00 +24°C° 0 mm 3 m/S 691 mmHg 77%
    08:00 +25°C° 0 mm 3 m/S 692 mmHg 71%
    09:00 +27°C° 0 mm 4 m/S 692 mmHg 65%
    10:00 +28°C° 0 mm 4 m/S 692 mmHg 60%
    11:00 +30°C° 0 mm 4 m/S 692 mmHg 55%
    12:00 +31°C° 0 mm 3 m/S 692 mmHg 51%
    13:00 +31°C° 0.7 mm 3 m/S 691 mmHg 50%
    14:00 +33°C° 0.7 mm 3 m/S 690 mmHg 48%
    15:00 +32°C° 0.7 mm 2 m/S 690 mmHg 47%
    16:00 +31°C° 0.6 mm 2 m/S 689 mmHg 52%
    17:00 +29°C° 0.6 mm 2 m/S 689 mmHg 57%
    18:00 +28°C° 0.6 mm 1 m/S 689 mmHg 62%
    19:00 +27°C° 0.1 mm 1 m/S 690 mmHg 64%
    20:00 +27°C° 0.1 mm 1 m/S 690 mmHg 65%
    21:00 +26°C° 0.1 mm 1 m/S 690 mmHg 67%
    22:00 +26°C° 0 mm 1 m/S 690 mmHg 67%
    23:00 +25°C° 0 mm 1 m/S 690 mmHg 68%

    24 Oktober, Mittwoch

    Zeit Temperatur Niederschläge Wind Luftdruck Luftfeuchtigkeit
    00:00 +25°C° 0 mm 1 m/S 690 mmHg 68%
    01:00 +25°C° 0.1 mm 1 m/S 689 mmHg 69%
    02:00 +25°C° 0.1 mm 1 m/S 689 mmHg 70%
    03:00 +24°C° 0.1 mm 1 m/S 689 mmHg 72%
    04:00 +24°C° 0 mm 1 m/S 689 mmHg 73%
    05:00 +24°C° 0 mm 1 m/S 689 mmHg 74%
    06:00 +23°C° 0 mm 1 m/S 690 mmHg 74%
    07:00 +25°C° 0 mm 2 m/S 690 mmHg 68%
    08:00 +27°C° 0 mm 2 m/S 691 mmHg 61%
    09:00 +29°C° 0 mm 3 m/S 692 mmHg 54%
    10:00 +31°C° 0 mm 3 m/S 691 mmHg 50%
    11:00 +33°C° 0 mm 3 m/S 691 mmHg 45%
    12:00 +34°C° 0 mm 3 m/S 691 mmHg 41%
    13:00 +34°C° 0 mm 2 m/S 690 mmHg 41%
    14:00 +34°C° 0 mm 2 m/S 689 mmHg 40%
    15:00 +34°C° 0 mm 2 m/S 689 mmHg 40%
    16:00 +32°C° 0 mm 1 m/S 689 mmHg 43%
    17:00 +31°C° 0 mm 1 m/S 689 mmHg 47%
    18:00 +30°C° 0 mm 1 m/S 688 mmHg 51%
    19:00 +29°C° 0 mm 1 m/S 689 mmHg 52%
    20:00 +28°C° 0 mm 1 m/S 689 mmHg 53%
    21:00 +28°C° 0 mm 1 m/S 690 mmHg 54%
    22:00 +27°C° 0 mm 1 m/S 689 mmHg 56%
    23:00 +27°C° 0 mm 1 m/S 689 mmHg 58%
    Mehr zeigen